Stations météo

réclame
Mon MeteoGroup
Gourette, France (7775): Température de l'air & dewpoint: 17.09.2017 22:00:00 - 23.09.2017 22:00:00 (CEST)Gourette, France (7775): Vitesse du vent & gusts: 17.09.2017 22:00:00 - 23.09.2017 22:00:00 (CEST)Gourette, France (7775): Direction du vent: 17.09.2017 22:00:00 - 23.09.2017 22:00:00 (CEST)Gourette, France (7775): reduced air pressure: 17.09.2017 22:00:00 - 23.09.2017 22:00:00 (CEST)Gourette, France (7775): visibility: 17.09.2017 22:00:00 - 23.09.2017 22:00:00 (CEST)Gourette, France (7775): Quantités de précipitations: 17.09.2017 22:00:00 - 23.09.2017 22:00:00 (CEST)
Date & Time tt [°C] td [°C] ff [km/h] ff [knt] fx [km/h] fx [knt] dd ppp [hPa] vv [km] rr [mm]
23.09.2017 22:00:00 - - - - - - - - - -
23.09.2017 21:00:00 20,7 16,5 20 11 35 19 SSE 1019,7 - 0,0
23.09.2017 20:00:00 20,5 16,1 18 10 31 17 SSE 1019,7 - 0,0
23.09.2017 19:00:00 20,7 16,1 12 7 34 18 S 1019,7 - 0,0
23.09.2017 18:00:00 21,0 16,0 21 11 37 20 S 1019,8 - 0,0
23.09.2017 17:00:00 21,9 16,2 19 10 39 21 S 1019,7 30 0,0
23.09.2017 16:00:00 21,9 15,7 23 13 40 21 SSE 1019,9 - 0,0
23.09.2017 15:00:00 22,4 15,7 21 12 41 22 S 1020,2 - 0,0
23.09.2017 14:00:00 23,8 15,8 25 14 42 23 SSE 1020,6 30 0,0
23.09.2017 13:00:00 24,2 15,4 24 13 40 21 SSE 1020,8 - 0,0
23.09.2017 12:00:00 23,4 15,2 21 11 35 19 SSE 1021,2 - 0,0
23.09.2017 11:00:00 22,3 15,2 17 9 31 17 S 1021,4 20 0,0
23.09.2017 10:00:00 22,3 15,2 18 10 27 15 S 1021,1 - 0,0
23.09.2017 09:00:00 21,0 15,1 13 7 19 10 SW 1021,2 - 0,0
23.09.2017 08:00:00 17,5 14,2 16 9 17 9 SW 1021,2 - 0,0
23.09.2017 07:00:00 17,5 13,8 12 6 15 8 SSW 1021,1 - 0,0
23.09.2017 06:00:00 17,5 14,0 14 7 15 8 SW 1020,9 - 0,0
23.09.2017 05:00:00 18,0 13,9 11 6 14 8 SW 1020,8 20 0,0
23.09.2017 04:00:00 18,2 14,1 11 6 16 9 SW 1021,3 - 0,0
23.09.2017 03:00:00 17,9 14,2 14 7 19 10 SW 1021,6 - 0,0
23.09.2017 02:00:00 17,7 14,2 16 9 23 12 SW 1021,7 - 0,0
23.09.2017 01:00:00 17,7 14,2 16 9 23 12 SW 1021,5 - 0,0
23.09.2017 00:00:00 17,9 14,2 15 8 23 12 SW 1021,8 - 0,0
22.09.2017 23:00:00 18,2 14,3 17 9 21 11 WSW 1021,8 - 0,0
22.09.2017 22:00:00 17,8 14,1 18 10 19 10 SW 1021,8 - 0,0
22.09.2017 21:00:00 18,2 14,1 14 8 16 8 SW 1021,7 - 0,0
22.09.2017 20:00:00 18,8 14,1 12 7 16 9 SSW 1021,3 - 0,0
22.09.2017 19:00:00 20,4 14,3 14 7 25 14 S 1021,1 - 0,0
22.09.2017 18:00:00 21,1 14,7 15 8 32 17 S 1020,9 - 0,0
22.09.2017 17:00:00 22,5 14,6 19 11 31 17 SSE 1020,7 25 0,0
22.09.2017 16:00:00 23,0 15,3 19 10 33 18 SSE 1020,6 - 0,0
22.09.2017 15:00:00 23,3 15,4 21 11 35 19 SSE 1021,0 - 0,0
22.09.2017 14:00:00 23,5 15,3 17 9 31 17 SE 1021,1 25 0,0
22.09.2017 13:00:00 22,9 14,7 19 11 32 17 SSE 1021,3 - 0,0
22.09.2017 12:00:00 22,7 14,5 18 10 27 15 SSE 1021,3 - 0,0
22.09.2017 11:00:00 22,2 14,1 11 6 24 13 SSE 1021,4 20 0,0
22.09.2017 10:00:00 21,7 13,8 10 6 17 9 SSW 1021,2 - 0,0
22.09.2017 09:00:00 20,5 13,0 3 2 11 6 SW 1020,6 - 0,0
22.09.2017 08:00:00 17,8 11,1 10 6 12 6 NW 1020,4 - 0,0
22.09.2017 07:00:00 17,8 11,1 10 6 11 6 NW 1020,2 - 0,0
22.09.2017 06:00:00 17,8 10,4 10 6 16 9 NNW 1020,2 - 0,0
22.09.2017 05:00:00 17,1 9,3 14 8 18 10 NNW 1020,2 30 0,0
22.09.2017 04:00:00 17,2 9,4 16 9 18 10 NNW 1020,2 - 0,0
22.09.2017 03:00:00 17,3 8,2 13 7 16 8 NNW 1020,4 - 0,0
22.09.2017 02:00:00 17,8 8,9 11 6 14 8 NNW 1020,5 - 0,0
22.09.2017 01:00:00 18,4 9,2 4 2 10 5 NNW 1020,3 - 0,0
22.09.2017 00:00:00 18,7 9,7 7 4 13 7 NW 1019,9 - 0,0
21.09.2017 23:00:00 18,4 9,5 6 3 10 6 NNW 1019,8 - 0,0
21.09.2017 22:00:00 18,1 9,4 7 4 11 6 SW 1019,9 - 0,0
21.09.2017 21:00:00 18,2 9,3 8 5 10 5 W 1019,8 - 0,0
21.09.2017 20:00:00 18,9 11,0 3 2 5 3 SSW 1019,4 - 0,0
21.09.2017 19:00:00 19,9 10,6 4 2 11 6 S 1019,3 - 0,0
21.09.2017 18:00:00 22,1 10,9 6 3 14 8 SE 1019,1 - 0,0
21.09.2017 17:00:00 22,7 12,0 6 4 19 10 SE 1019,0 35 0,0
21.09.2017 16:00:00 23,4 11,8 9 5 21 11 SE 1019,1 - 0,0
21.09.2017 15:00:00 23,2 12,5 11 6 22 12 ESE 1019,2 - 0,0
21.09.2017 14:00:00 23,5 12,5 10 5 24 13 SE 1019,3 35 0,0
21.09.2017 13:00:00 23,0 12,3 12 6 25 14 ESE 1019,5 - 0,0
21.09.2017 12:00:00 23,1 11,8 13 7 22 12 ESE 1019,6 25 0,0
21.09.2017 11:00:00 22,6 11,6 10 5 19 10 ESE 1019,6 - 0,0
21.09.2017 10:00:00 22,0 11,7 7 4 13 7 SSE 1019,4 - 0,0
21.09.2017 09:00:00 19,8 9,1 7 4 9 5 S 1019,1 25 0,0
21.09.2017 08:00:00 17,8 8,1 4 2 6 3 WSW 1018,9 - 0,0
21.09.2017 07:00:00 17,5 8,1 3 1 5 3 WSW 1018,8 - 0,0
21.09.2017 06:00:00 17,5 6,7 0 0 5 3 N 1018,6 - 0,0
21.09.2017 05:00:00 17,3 5,9 5 3 6 4 W 1018,8 20 0,0
21.09.2017 04:00:00 17,7 4,3 5 3 8 5 W 1018,6 - 0,0
21.09.2017 03:00:00 18,5 6,3 4 2 9 5 NW 1018,6 - 0,0
21.09.2017 02:00:00 17,2 5,2 7 4 15 8 NW 1018,9 - 0,0
21.09.2017 01:00:00 17,2 5,8 12 6 19 11 NNW 1018,5 - 0,0
21.09.2017 00:00:00 17,1 6,9 16 8 21 11 NNW 1018,4 - 0,0
20.09.2017 23:00:00 17,7 9,1 8 5 13 7 NNW 1018,2 - 0,0
20.09.2017 22:00:00 17,5 10,8 13 7 17 9 WSW 1017,8 - 0,0
20.09.2017 21:00:00 16,5 10,8 15 8 23 12 SW 1017,6 - 0,0
20.09.2017 20:00:00 17,3 9,7 14 7 18 10 SW 1017,4 - 0,0
20.09.2017 19:00:00 19,6 9,5 8 5 18 10 S 1017,0 - 0,0
20.09.2017 18:00:00 21,2 9,7 11 6 21 11 SSE 1016,6 - 0,0
20.09.2017 17:00:00 22,0 10,2 14 7 24 13 SE 1016,6 35 0,0
20.09.2017 16:00:00 21,5 10,3 15 8 27 15 SE 1016,7 - 0,0
20.09.2017 15:00:00 22,2 10,0 14 8 24 13 SSE 1016,5 - 0,0
20.09.2017 14:00:00 23,1 10,8 9 5 22 12 SSE 1016,5 35 0,0
20.09.2017 13:00:00 22,4 10,2 10 6 21 11 ESE 1016,5 - 0,0
20.09.2017 12:00:00 22,1 10,6 11 6 23 12 E 1016,5 - 0,0
20.09.2017 11:00:00 21,0 9,6 12 7 20 11 E 1016,2 30 0,0
20.09.2017 10:00:00 20,8 10,0 10 5 19 11 E 1015,8 - 0,0
20.09.2017 09:00:00 18,8 8,7 6 3 16 9 N 1015,3 - 0,0
20.09.2017 08:00:00 16,2 8,2 14 7 24 13 NW 1014,7 - 0,2
20.09.2017 07:00:00 14,3 9,5 14 8 46 25 NNW 1015,1 - 0,0
20.09.2017 06:00:00 13,9 6,0 20 11 27 14 N 1014,3 - 0,0
20.09.2017 05:00:00 14,0 5,4 9 5 17 9 SW 1013,1 20 0,0
20.09.2017 04:00:00 12,7 6,5 5 3 16 9 S 1013,5 - 0,0
20.09.2017 03:00:00 13,3 7,5 13 7 20 11 NNW 1013,4 - 0,0
20.09.2017 02:00:00 12,6 8,1 15 8 35 19 SW 1013,5 - 0,0
20.09.2017 01:00:00 12,0 8,7 16 9 21 11 W 1014,2 - 0,0
20.09.2017 00:00:00 14,4 8,6 10 5 53 28 NNW 1015,1 - 0,0
19.09.2017 23:00:00 14,2 9,8 42 23 58 32 ENE 1014,6 - 0,0
19.09.2017 22:00:00 13,9 6,0 10 6 26 14 W 1013,0 - 0,0
19.09.2017 21:00:00 11,8 9,0 20 11 43 23 WSW 1012,5 - 2,2
19.09.2017 20:00:00 13,9 11,1 22 12 32 17 NNW 1012,6 15 3,6
19.09.2017 19:00:00 14,5 11,6 19 10 29 16 NNW 1011,7 - 1,0
19.09.2017 18:00:00 15,6 11,6 16 8 43 23 NNW 1011,3 - 0,0
19.09.2017 17:00:00 19,9 10,3 15 8 27 15 E 1010,7 20 0,0
19.09.2017 16:00:00 21,7 11,4 15 8 31 17 SSE 1010,8 - 0,0
19.09.2017 15:00:00 21,4 11,1 17 9 29 15 SSE 1011,4 - 0,0
19.09.2017 14:00:00 20,8 10,9 16 9 25 13 S 1011,9 20 0,0
19.09.2017 13:00:00 20,7 10,5 11 6 24 13 SE 1011,9 - 0,0
19.09.2017 12:00:00 22,5 10,3 8 5 20 11 SSE 1012,4 - 0,0
19.09.2017 11:00:00 21,6 10,1 6 3 17 9 E 1012,0 25 0,0
19.09.2017 10:00:00 19,9 11,6 8 4 18 10 E 1011,7 - 0,0
19.09.2017 09:00:00 16,6 11,5 8 5 17 9 SW 1011,4 - 0,0
19.09.2017 08:00:00 14,5 10,5 15 8 26 14 N 1011,5 20 0,0
19.09.2017 07:00:00 13,9 11,4 21 11 40 22 N 1011,6 - 0,0
19.09.2017 06:00:00 13,8 10,8 22 12 37 20 N 1011,7 - 0,0
19.09.2017 05:00:00 14,3 9,9 13 7 34 18 NNW 1011,0 20 0,0
19.09.2017 04:00:00 13,3 10,5 26 14 31 17 SSW 1010,9 - 0,0
19.09.2017 03:00:00 13,8 11,5 9 5 27 15 WSW 1011,5 - 0,0
19.09.2017 02:00:00 14,0 12,6 11 6 19 10 SSW 1012,1 - 0,0
19.09.2017 01:00:00 15,0 12,7 15 8 31 17 N 1012,4 - 0,0
19.09.2017 00:00:00 15,5 13,2 16 9 25 13 N 1013,1 - 0,2
18.09.2017 23:00:00 15,4 13,4 17 9 24 13 N 1013,4 - 0,0
18.09.2017 22:00:00 15,6 13,8 16 8 25 14 N 1013,9 - 0,8
18.09.2017 21:00:00 15,7 13,7 16 9 26 14 NNW 1014,2 - 2,2
18.09.2017 20:00:00 16,4 12,7 21 11 26 14 NNW 1013,7 20 0,0
18.09.2017 19:00:00 17,1 12,4 15 8 23 12 NNW 1013,5 - 0,0
18.09.2017 18:00:00 17,3 13,4 5 3 20 11 WSW 1014,1 - 0,2
18.09.2017 17:00:00 17,6 15,0 13 7 18 10 WSW 1014,5 20 1,0
18.09.2017 16:00:00 20,7 12,9 9 5 20 11 SSW 1014,9 - 0,0
18.09.2017 15:00:00 22,5 10,0 11 6 25 13 SE 1014,6 - 0,0
18.09.2017 14:00:00 24,1 10,0 8 4 22 12 SE 1015,3 20 0,0
18.09.2017 13:00:00 23,1 9,5 14 7 26 14 SE 1015,7 - 0,0
18.09.2017 12:00:00 24,6 8,5 16 9 25 13 SE 1015,5 - 0,0
18.09.2017 11:00:00 23,8 7,8 15 8 22 12 SSE 1015,7 - 0,0
18.09.2017 10:00:00 23,2 6,9 9 5 16 9 S 1015,9 - 0,0
18.09.2017 09:00:00 21,4 8,0 0 0 14 7 N 1015,8 - 0,0
18.09.2017 08:00:00 18,2 5,4 9 5 14 7 W 1015,9 20 0,0
18.09.2017 07:00:00 17,8 4,0 7 4 15 8 W 1016,1 - 0,0
18.09.2017 06:00:00 18,6 4,0 8 5 17 9 NW 1015,7 - 0,0
18.09.2017 05:00:00 17,4 5,0 8 4 29 16 SW 1015,6 20 0,0
18.09.2017 04:00:00 19,0 3,6 17 9 22 12 SSW 1015,6 - 0,0
18.09.2017 03:00:00 18,5 3,5 13 7 18 10 W 1016,1 - 0,0
18.09.2017 02:00:00 18,1 2,8 3 2 14 7 WSW 1016,3 - 0,0
18.09.2017 01:00:00 19,8 2,6 8 5 24 13 NW 1016,3 - 0,0
18.09.2017 00:00:00 18,8 4,9 16 9 41 22 WSW 1016,6 - 0,0
17.09.2017 23:00:00 19,4 4,7 27 14 43 23 WSW 1016,4 - 0,0
17.09.2017 22:00:00 18,8 3,8 22 12 37 20 SW 1016,0 - 0,0

tt = Température de l'air
td = dewpoint
ff = Vitesse du vent
fx = gusts
dd = Direction du vent
ppp = reduced air pressure
vv = visibility
rr = Quantités de précipitations

stations d'obs. à proximité